Total_Precipitation_Accumulation
0.00 0.02 0.04 0.09 0.28 0.12 0.00 0.00 0.00 0.00 0.00 0.00 0.00 0.00 0.00 0.00 0.03 0.20 0.04 0.00 0.00 0.00 0.01 0.03 0.08 0.09 0.08 0.07 0.06 0.13 0.13 0.06 0.05 0.07 0.07 0.04 0.04 0.06 0.05 0.05 0.03 0.02 0.02 0.03 0.12 0.18 0.16 0.18 0.25
0.00 0.01 0.05 0.21 0.26 0.03 0.00 0.00 0.00 0.00 0.00 0.00 0.00 0.00 0.00 0.00 0.00 0.01 0.00 0.00 0.00 0.00 0.00 0.03 0.06 0.11 0.11 0.08 0.11 0.24 0.23 0.14 0.10 0.08 0.07 0.04 0.03 0.08 0.15 0.14 0.04 0.02 0.02 0.03 0.09 0.15 0.13 0.15 0.24
0.00 0.01 0.07 0.24 0.11 0.01 0.00 0.00 0.00 0.00 0.00 0.00 0.00 0.00 0.00 0.00 0.00 0.00 0.00 0.00 0.00 0.00 0.02 0.11 0.14 0.12 0.10 0.12 0.22 0.36 0.31 0.25 0.16 0.08 0.05 0.04 0.04 0.07 0.14 0.10 0.05 0.01 0.01 0.03 0.07 0.11 0.11 0.11 0.14
0.00 0.02 0.13 0.21 0.06 0.00 0.00 0.00 0.00 0.00 0.00 0.00 0.00 0.00 0.00 0.00 0.00 0.00 0.00 0.00 0.00 0.00 0.02 0.09 0.14 0.12 0.13 0.21 0.32 0.35 0.37 0.41 0.26 0.11 0.05 0.07 0.08 0.09 0.12 0.11 0.05 0.02 0.01 0.01 0.03 0.06 0.10 0.10 0.11
0.03 0.08 0.26 0.28 0.04 0.00 0.00 0.00 0.00 0.00 0.00 0.00 0.00 0.00 0.00 0.00 0.00 0.00 0.00 0.00 0.00 0.00 0.02 0.04 0.14 0.14 0.16 0.25 0.33 0.31 0.36 0.41 0.29 0.11 0.10 0.12 0.07 0.07 0.10 0.13 0.05 0.02 0.01 0.01 0.01 0.04 0.06 0.08 0.11
0.05 0.15 0.37 0.38 0.06 0.00 0.00 0.00 0.00 0.00 0.00 0.00 0.00 0.00 0.00 0.00 0.00 0.00 0.00 0.00 0.00 0.00 0.01 0.03 0.09 0.11 0.15 0.25 0.34 0.28 0.30 0.32 0.22 0.13 0.13 0.09 0.08 0.08 0.11 0.08 0.04 0.01 0.00 0.00 0.01 0.04 0.05 0.06 0.09
0.05 0.14 0.33 0.23 0.02 0.00 0.00 0.00 0.00 0.00 0.00 0.00 0.00 0.00 0.00 0.00 0.00 0.00 0.01 0.02 0.02 0.02 0.01 0.02 0.02 0.03 0.07 0.17 0.28 0.32 0.31 0.28 0.15 0.12 0.10 0.10 0.09 0.07 0.05 0.04 0.02 0.00 0.00 0.00 0.01 0.02 0.02 0.02 0.04
0.02 0.05 0.16 0.12 0.03 0.01 0.00 0.00 0.00 0.00 0.00 0.00 0.00 0.00 0.00 0.00 0.00 0.01 0.02 0.06 0.06 0.03 0.01 0.01 0.01 0.02 0.05 0.07 0.16 0.29 0.35 0.29 0.18 0.13 0.12 0.10 0.07 0.04 0.03 0.01 0.00 0.00 0.00 0.00 0.00 0.01 0.01 0.01 0.01
0.03 0.04 0.10 0.14 0.06 0.02 0.01 0.00 0.00 0.00 0.00 0.00 0.00 0.00 0.00 0.00 0.00 0.00 0.01 0.04 0.06 0.04 0.01 0.01 0.01 0.01 0.07 0.14 0.13 0.26 0.35 0.30 0.17 0.12 0.10 0.10 0.09 0.09 0.08 0.01 0.00 0.00 0.00 0.00 0.01 0.01 0.01 0.00 0.00
0.06 0.07 0.09 0.19 0.11 0.04 0.01 0.00 0.00 0.00 0.00 0.00 0.00 0.00 0.00 0.00 0.00 0.00 0.00 0.01 0.03 0.04 0.05 0.03 0.01 0.01 0.04 0.13 0.35 0.48 0.37 0.25 0.17 0.15 0.08 0.16 0.20 0.17 0.10 0.01 0.00 0.01 0.00 0.00 0.01 0.01 0.00 0.00 0.00
0.05 0.07 0.07 0.09 0.09 0.04 0.01 0.01 0.01 0.00 0.01 0.01 0.00 0.00 0.00 0.00 0.00 0.00 0.00 0.00 0.00 0.01 0.03 0.05 0.02 0.00 0.01 0.13 0.36 0.52 0.57 0.48 0.43 0.24 0.11 0.16 0.10 0.04 0.03 0.01 0.02 0.03 0.00 0.00 0.00 0.00 0.00 0.00 0.00
0.07 0.05 0.03 0.03 0.04 0.03 0.01 0.01 0.01 0.01 0.01 0.01 0.00 0.00 0.00 0.00 0.00 0.00 0.00 0.00 0.00 0.00 0.00 0.02 0.03 0.01 0.00 0.03 0.09 0.19 0.24 0.25 0.27 0.16 0.05 0.04 0.03 0.01 0.01 0.00 0.01 0.01 0.00 0.00 0.00 0.00 0.00 0.00 0.00
0.08 0.04 0.03 0.03 0.03 0.04 0.02 0.01 0.01 0.01 0.01 0.00 0.00 0.00 0.00 0.00 0.01 0.01 0.00 0.00 0.00 0.00 0.00 0.00 0.01 0.01 0.01 0.01 0.03 0.04 0.09 0.11 0.09 0.10 0.08 0.02 0.01 0.01 0.00 0.00 0.00 0.00 0.00 0.00 0.00 0.00 0.00 0.00 0.00
0.03 0.03 0.04 0.04 0.04 0.02 0.01 0.01 0.01 0.01 0.01 0.00 0.00 0.00 0.01 0.02 0.02 0.02 0.01 0.01 0.01 0.00 0.00 0.00 0.00 0.01 0.00 0.00 0.00 0.01 0.05 0.05 0.04 0.02 0.04 0.02 0.00 0.00 0.00 0.00 0.00 0.00 0.00 0.00 0.00 0.00 0.00 0.00 0.00
0.01 0.02 0.02 0.01 0.01 0.01 0.01 0.01 0.01 0.02 0.02 0.01 0.01 0.00 0.01 0.02 0.03 0.03 0.03 0.01 0.01 0.00 0.00 0.00 0.00 0.01 0.00 0.01 0.01 0.00 0.02 0.03 0.03 0.02 0.01 0.01 0.01 0.00 0.00 0.00 0.00 0.00 0.00 0.00 0.00 0.00 0.00 0.00 0.00
0.00 0.00 0.01 0.02 0.01 0.01 0.01 0.03 0.04 0.05 0.04 0.04 0.04 0.02 0.02 0.02 0.04 0.07 0.07 0.03 0.01 0.01 0.00 0.00 0.00 0.00 0.00 0.01 0.01 0.02 0.02 0.03 0.04 0.03 0.02 0.02 0.02 0.02 0.03 0.03 0.03 0.01 0.00 0.00 0.00 0.00 0.00 0.00 0.00
0.01 0.02 0.03 0.04 0.04 0.04 0.04 0.05 0.06 0.08 0.07 0.08 0.08 0.05 0.03 0.04 0.06 0.09 0.10 0.08 0.04 0.02 0.01 0.01 0.01 0.01 0.01 0.02 0.04 0.06 0.10 0.15 0.12 0.11 0.07 0.08 0.10 0.12 0.14 0.15 0.14 0.07 0.03 0.01 0.01 0.01 0.00 0.00 0.01
0.10 0.06 0.06 0.06 0.06 0.05 0.05 0.06 0.07 0.07 0.06 0.05 0.06 0.05 0.04 0.05 0.08 0.13 0.14 0.12 0.08 0.05 0.03 0.02 0.02 0.03 0.05 0.09 0.12 0.24 0.32 0.32 0.34 0.30 0.18 0.22 0.31 0.36 0.41 0.39 0.37 0.27 0.17 0.13 0.09 0.08 0.06 0.04 0.02
0.06 0.05 0.05 0.07 0.08 0.07 0.06 0.05 0.06 0.07 0.06 0.05 0.05 0.04 0.04 0.04 0.06 0.09 0.11 0.13 0.12 0.07 0.03 0.02 0.02 0.04 0.10 0.14 0.20 0.38 0.59 0.55 0.58 0.52 0.34 0.37 0.53 0.70 0.79 0.75 0.67 0.56 0.48 0.39 0.35 0.42 0.41 0.25 0.07
0.05 0.07 0.06 0.05 0.05 0.05 0.05 0.04 0.04 0.05 0.06 0.06 0.05 0.04 0.04 0.03 0.03 0.04 0.06 0.09 0.09 0.08 0.04 0.04 0.05 0.08 0.12 0.18 0.27 0.37 0.44 0.33 0.39 0.45 0.45 0.41 0.45 0.62 0.74 0.87 0.82 0.69 0.66 0.71 0.74 0.88 0.91 0.60 0.26
0.06 0.09 0.10 0.10 0.06 0.04 0.04 0.04 0.02 0.03 0.04 0.04 0.05 0.05 0.04 0.03 0.02 0.03 0.04 0.05 0.06 0.06 0.06 0.06 0.08 0.14 0.22 0.32 0.46 0.54 0.57 0.56 0.60 0.57 0.61 0.58 0.52 0.52 0.56 0.73 0.76 0.67 0.66 0.77 0.88 1.10 1.31 1.04 0.66
0.06 0.05 0.06 0.09 0.13 0.13 0.14 0.15 0.06 0.05 0.08 0.06 0.05 0.04 0.04 0.03 0.02 0.02 0.02 0.04 0.05 0.05 0.05 0.08 0.14 0.27 0.43 0.58 0.74 0.88 0.93 0.85 0.70 0.65 0.60 0.46 0.43 0.44 0.44 0.50 0.57 0.62 0.61 0.75 0.82 0.89 1.21 1.31 1.03
0.02 0.02 0.03 0.07 0.12 0.10 0.09 0.13 0.09 0.12 0.17 0.16 0.12 0.07 0.03 0.03 0.03 0.05 0.06 0.08 0.09 0.10 0.12 0.19 0.38 0.61 0.83 0.99 1.15 1.32 1.21 1.00 0.78 0.61 0.51 0.47 0.41 0.36 0.36 0.43 0.40 0.41 0.48 0.61 0.80 0.94 1.15 1.27 1.14
0.01 0.02 0.05 0.08 0.11 0.07 0.05 0.10 0.16 0.18 0.14 0.12 0.10 0.07 0.05 0.06 0.10 0.16 0.23 0.30 0.35 0.39 0.51 0.72 0.95 1.11 1.18 1.27 1.33 1.37 1.27 1.12 0.93 0.68 0.52 0.46 0.43 0.42 0.46 0.47 0.37 0.31 0.36 0.45 0.61 0.78 0.98 1.19 1.21
0.01 0.04 0.10 0.12 0.14 0.11 0.11 0.23 0.29 0.20 0.12 0.08 0.06 0.05 0.07 0.13 0.23 0.35 0.52 0.66 0.77 0.88 0.98 1.12 1.28 1.39 1.32 1.27 1.26 1.25 1.17 1.06 0.91 0.73 0.56 0.43 0.37 0.35 0.39 0.45 0.50 0.44 0.39 0.42 0.46 0.55 0.63 0.84 1.09
0.02 0.07 0.18 0.22 0.20 0.22 0.24 0.40 0.40 0.28 0.17 0.11 0.07 0.07 0.14 0.25 0.39 0.49 0.59 0.73 0.88 0.98 1.01 1.02 1.11 1.18 1.16 1.12 1.07 1.02 0.98 0.89 0.76 0.59 0.49 0.42 0.36 0.31 0.24 0.24 0.31 0.40 0.45 0.40 0.37 0.32 0.37 0.53 0.73
0.04 0.06 0.14 0.26 0.22 0.20 0.29 0.50 0.44 0.27 0.22 0.16 0.13 0.15 0.23 0.40 0.59 0.71 0.83 0.97 1.00 1.01 1.01 0.93 0.92 0.95 0.96 0.90 0.84 0.80 0.75 0.69 0.60 0.52 0.48 0.41 0.34 0.26 0.21 0.21 0.19 0.19 0.19 0.18 0.19 0.21 0.26 0.30 0.48
0.09 0.16 0.24 0.42 0.44 0.38 0.44 0.52 0.46 0.38 0.34 0.33 0.37 0.43 0.46 0.57 0.77 1.00 1.24 1.34 1.18 0.94 0.82 0.79 0.74 0.74 0.78 0.80 0.77 0.72 0.66 0.59 0.52 0.46 0.44 0.36 0.28 0.21 0.18 0.15 0.11 0.08 0.06 0.07 0.10 0.16 0.24 0.27 0.34
0.15 0.26 0.34 0.45 0.54 0.65 0.80 0.88 0.74 0.75 0.75 0.78 0.84 0.86 0.84 0.92 0.89 1.00 1.17 1.27 1.09 0.81 0.62 0.61 0.66 0.67 0.67 0.69 0.68 0.65 0.58 0.50 0.44 0.40 0.37 0.32 0.24 0.19 0.13 0.09 0.07 0.07 0.05 0.05 0.08 0.09 0.11 0.14 0.19
0.27 0.38 0.51 0.69 0.63 0.68 0.86 0.99 0.88 0.84 0.83 0.89 1.02 1.07 1.03 0.92 0.82 0.82 0.85 0.88 0.84 0.68 0.56 0.53 0.59 0.62 0.63 0.68 0.68 0.64 0.54 0.46 0.43 0.38 0.33 0.27 0.20 0.14 0.10 0.10 0.07 0.05 0.05 0.05 0.08 0.09 0.10 0.12 0.15